Time,TemperatureF,DewpointF,PressureIn,WindDirection,WindDirectionDegrees,WindSpeedMPH,WindSpeedGustMPH,Humidity,HourlyPrecipIn,Conditions,Clouds,dailyrainin,SoftwareType,DateUTC
2013-02-23 00:26:00,35.4,32.1,30.18,NNE,22,0.0,-999.0,88,0.02,Cloudy,,0.35,Open2300\PHP-WU,2013-02-23 05:26:00,
2013-02-23 00:27:00,35.4,32.1,30.17,NNE,22,0.0,-999.0,88,0.02,Cloudy,,0.35,Open2300\PHP-WU,2013-02-23 05:27:00,
2013-02-23 00:31:00,35.4,32.1,30.18,NE,45,0.0,-999.0,88,0.02,Cloudy,,0.35,Open2300\PHP-WU,2013-02-23 05:31:00,
2013-02-23 00:37:00,35.4,32.1,30.18,NNE,22,0.0,-999.0,88,0.02,Cloudy,,0.35,Open2300\PHP-WU,2013-02-23 05:37:00,
2013-02-23 00:43:00,35.4,32.1,30.17,NNE,22,0.0,-999.0,88,0.00,Cloudy,,0.35,Open2300\PHP-WU,2013-02-23 05:43:00,
2013-02-23 00:49:00,35.4,32.1,30.17,NE,45,0.0,-999.0,88,0.02,Cloudy,,0.37,Open2300\PHP-WU,2013-02-23 05:49:00,
2013-02-23 00:55:00,35.4,32.1,30.17,NE,45,0.0,-999.0,88,0.02,Rainy,,0.37,Open2300\PHP-WU,2013-02-23 05:55:00,
2013-02-23 01:01:00,35.4,32.1,30.17,NE,45,0.0,-999.0,88,0.02,Rainy,,0.37,Open2300\PHP-WU,2013-02-23 06:01:00,
2013-02-23 01:07:00,35.4,32.1,30.17,NE,45,0.0,-999.0,88,0.02,Rainy,,0.37,Open2300\PHP-WU,2013-02-23 06:07:00,
2013-02-23 01:13:00,35.4,32.1,30.18,NE,45,0.0,-999.0,88,0.02,Rainy,,0.37,Open2300\PHP-WU,2013-02-23 06:13:00,
2013-02-23 03:14:00,36.0,32.7,30.12,NE,45,0.0,-999.0,88,0.02,Rainy,,0.31,Open2300\PHP-WU,2013-02-23 08:14:00,
2013-02-23 03:19:00,36.0,32.7,30.12,NE,45,0.0,-999.0,88,0.02,Rainy,,0.31,Open2300\PHP-WU,2013-02-23 08:19:00,
2013-02-23 03:25:00,36.0,32.7,30.12,NE,45,0.0,-999.0,88,0.02,Rainy,,0.31,Open2300\PHP-WU,2013-02-23 08:25:00,
2013-02-23 04:42:00,36.3,33.0,30.08,NE,45,0.0,-999.0,88,0.02,Rainy,,0.26,Open2300\PHP-WU,2013-02-23 09:42:00,
2013-02-23 04:47:00,36.3,33.0,30.08,NE,45,0.0,-999.0,88,0.02,Rainy,,0.26,Open2300\PHP-WU,2013-02-23 09:47:00,
2013-02-23 04:53:00,36.5,33.2,30.09,NNE,22,0.0,-999.0,88,0.02,Rainy,,0.26,Open2300\PHP-WU,2013-02-23 09:53:00,
2013-02-23 04:59:00,36.5,33.2,30.10,NNE,22,0.0,-999.0,88,0.02,Rainy,,0.26,Open2300\PHP-WU,2013-02-23 09:59:00,
2013-02-23 05:05:00,36.5,33.2,30.10,North,0,0.0,-999.0,88,0.02,Rainy,,0.24,Open2300\PHP-WU,2013-02-23 10:05:00,
2013-02-23 05:11:00,36.5,33.2,30.10,North,0,0.0,-999.0,88,0.04,Rainy,,0.26,Open2300\PHP-WU,2013-02-23 10:11:00,
2013-02-23 05:17:00,36.5,33.2,30.10,North,0,0.0,-999.0,88,0.06,Rainy,,0.29,Open2300\PHP-WU,2013-02-23 10:17:00,
2013-02-23 05:23:00,36.5,33.2,30.11,North,0,0.0,-999.0,88,0.08,Rainy,,0.31,Open2300\PHP-WU,2013-02-23 10:23:00,
2013-02-23 05:29:00,36.5,33.2,30.10,North,0,0.0,-999.0,88,0.12,Rainy,,0.35,Open2300\PHP-WU,2013-02-23 10:29:00,
2013-02-23 05:35:00,36.5,33.2,30.10,NNE,22,0.0,-999.0,88,0.20,Rainy,,0.43,Open2300\PHP-WU,2013-02-23 10:35:00,
2013-02-23 05:41:00,36.5,33.2,30.07,NNE,22,0.0,-999.0,88,0.24,Rainy,,0.49,Open2300\PHP-WU,2013-02-23 10:41:00,
2013-02-23 05:47:00,36.5,33.2,30.09,West,270,0.0,-999.0,88,0.31,Rainy,,0.55,Open2300\PHP-WU,2013-02-23 10:47:00,
2013-02-23 05:53:00,36.5,33.2,30.09,NNE,22,0.0,-999.0,88,0.31,Rainy,,0.55,Open2300\PHP-WU,2013-02-23 10:53:00,
2013-02-23 05:59:00,36.5,33.2,30.11,NNW,337,0.0,-999.0,88,0.33,Rainy,,0.57,Open2300\PHP-WU,2013-02-23 10:59:00,
2013-02-23 06:05:00,36.7,33.4,30.13,NNW,337,0.0,-999.0,88,0.31,Rainy,,0.55,Open2300\PHP-WU,2013-02-23 11:05:00,
2013-02-23 06:11:00,36.7,33.4,30.12,North,0,0.0,-999.0,88,0.31,Rainy,,0.55,Open2300\PHP-WU,2013-02-23 11:11:00,
2013-02-23 06:17:00,36.7,33.4,30.12,East,90,0.0,-999.0,88,0.31,Rainy,,0.57,Open2300\PHP-WU,2013-02-23 11:17:00,
2013-02-23 06:23:00,36.7,33.4,30.11,North,0,0.0,-999.0,88,0.31,Rainy,,0.59,Open2300\PHP-WU,2013-02-23 11:23:00,
2013-02-23 06:29:00,36.7,33.7,30.10,NNE,22,0.0,-999.0,89,0.24,Rainy,,0.61,Open2300\PHP-WU,2013-02-23 11:29:00,
2013-02-23 06:35:00,36.7,33.7,30.11,East,90,0.0,-999.0,89,0.16,Rainy,,0.61,Open2300\PHP-WU,2013-02-23 11:35:00,
2013-02-23 06:41:00,36.9,33.9,30.10,North,0,0.0,-999.0,89,0.16,Rainy,,0.63,Open2300\PHP-WU,2013-02-23 11:41:00,
2013-02-23 06:47:00,36.9,33.9,30.10,NNE,22,0.0,-999.0,89,0.12,Rainy,,0.65,Open2300\PHP-WU,2013-02-23 11:47:00,
2013-02-23 06:53:00,36.9,33.9,30.11,NNE,22,0.0,-999.0,89,0.10,Rainy,,0.65,Open2300\PHP-WU,2013-02-23 11:53:00,
2013-02-23 06:59:00,37.0,34.1,30.10,NNE,22,0.0,-999.0,89,0.12,Rainy,,0.67,Open2300\PHP-WU,2013-02-23 11:59:00,
2013-02-23 07:05:00,37.0,34.1,30.09,NNE,22,0.0,-999.0,89,0.14,Rainy,,0.69,Open2300\PHP-WU,2013-02-23 12:05:00,
2013-02-23 07:11:00,36.9,33.9,30.09,North,0,0.0,-999.0,89,0.14,Rainy,,0.69,Open2300\PHP-WU,2013-02-23 12:11:00,
2013-02-23 07:17:00,36.9,33.9,30.08,ENE,67,0.0,-999.0,89,0.12,Rainy,,0.69,Open2300\PHP-WU,2013-02-23 12:17:00,
2013-02-23 07:23:00,36.9,33.9,30.07,North,0,0.0,-999.0,89,0.12,Rainy,,0.71,Open2300\PHP-WU,2013-02-23 12:23:00,
2013-02-23 07:30:00,37.0,34.1,30.06,NNE,22,0.0,-999.0,89,0.10,Rainy,,0.71,Open2300\PHP-WU,2013-02-23 12:30:00,
2013-02-23 07:36:00,37.0,34.1,30.05,SSE,157,0.0,-999.0,89,0.08,Rainy,,0.71,Open2300\PHP-WU,2013-02-23 12:36:00,
2013-02-23 07:42:00,37.0,34.1,30.05,NNE,22,0.0,-999.0,89,0.10,Rainy,,0.73,Open2300\PHP-WU,2013-02-23 12:42:00,
2013-02-23 07:48:00,37.2,34.2,30.06,North,0,0.0,-999.0,89,0.08,Rainy,,0.73,Open2300\PHP-WU,2013-02-23 12:48:00,
2013-02-23 07:54:00,37.2,34.2,30.07,NNW,337,0.0,-999.0,89,0.06,Rainy,,0.73,Open2300\PHP-WU,2013-02-23 12:54:00,
2013-02-23 08:00:00,37.2,34.2,30.06,NNW,337,0.0,-999.0,89,0.04,Rainy,,0.73,Open2300\PHP-WU,2013-02-23 13:00:00,
2013-02-23 08:06:00,37.2,34.2,30.05,NNW,337,0.0,-999.0,89,0.04,Rainy,,0.73,Open2300\PHP-WU,2013-02-23 13:06:00,
2013-02-23 08:34:00,37.4,34.4,30.05,North,0,0.0,-999.0,89,0.02,Rainy,,0.73,Open2300\PHP-WU,2013-02-23 13:34:00,
2013-02-23 08:40:00,37.6,34.6,30.06,WNW,292,0.0,-999.0,89,0.00,Rainy,,0.73,Open2300\PHP-WU,2013-02-23 13:40:00,
2013-02-23 08:46:00,37.6,34.6,30.06,WNW,292,0.0,-999.0,89,0.00,Rainy,,0.73,Open2300\PHP-WU,2013-02-23 13:46:00,
2013-02-23 08:52:00,37.6,34.6,30.07,West,270,0.0,-999.0,89,0.02,Rainy,,0.75,Open2300\PHP-WU,2013-02-23 13:52:00,
2013-02-23 08:58:00,37.6,34.6,30.07,West,270,0.0,-999.0,89,0.04,Rainy,,0.77,Open2300\PHP-WU,2013-02-23 13:58:00,
2013-02-23 09:04:00,37.8,34.8,30.07,WSW,247,0.0,-999.0,89,0.04,Rainy,,0.77,Open2300\PHP-WU,2013-02-23 14:04:00,
2013-02-23 09:10:00,37.8,34.8,30.05,North,0,0.0,-999.0,89,0.04,Rainy,,0.77,Open2300\PHP-WU,2013-02-23 14:10:00,
2013-02-23 09:16:00,37.8,34.8,30.05,North,0,0.0,-999.0,89,0.06,Rainy,,0.80,Open2300\PHP-WU,2013-02-23 14:16:00,
2013-02-23 09:22:00,37.9,35.0,30.06,WNW,292,0.0,-999.0,89,0.06,Rainy,,0.80,Open2300\PHP-WU,2013-02-23 14:22:00,
2013-02-23 09:28:00,37.9,35.0,30.06,NNW,337,0.0,-999.0,89,0.06,Rainy,,0.80,Open2300\PHP-WU,2013-02-23 14:28:00,
2013-02-23 09:34:00,37.9,35.0,30.06,NNW,337,0.0,-999.0,89,0.08,Rainy,,0.82,Open2300\PHP-WU,2013-02-23 14:34:00,
2013-02-23 09:40:00,37.9,35.0,30.05,NNW,337,0.0,-999.0,89,0.08,Rainy,,0.82,Open2300\PHP-WU,2013-02-23 14:40:00,
2013-02-23 09:46:00,38.1,35.1,30.06,NNW,337,0.0,-999.0,89,0.06,Rainy,,0.82,Open2300\PHP-WU,2013-02-23 14:46:00,
2013-02-23 09:52:00,38.3,35.3,30.06,NNW,337,0.0,-999.0,89,0.06,Rainy,,0.84,Open2300\PHP-WU,2013-02-23 14:52:00,
2013-02-23 09:58:00,38.3,35.3,30.05,WNW,292,0.0,-999.0,89,0.08,Rainy,,0.86,Open2300\PHP-WU,2013-02-23 14:58:00,
2013-02-23 10:04:00,38.3,35.3,30.05,WNW,292,0.0,-999.0,89,0.08,Rainy,,0.86,Open2300\PHP-WU,2013-02-23 15:04:00,
2013-02-23 10:10:00,38.3,35.3,30.04,WNW,292,0.0,-999.0,89,0.08,Rainy,,0.86,Open2300\PHP-WU,2013-02-23 15:10:00,
2013-02-23 11:14:00,38.7,35.4,30.03,North,0,0.0,-999.0,88,0.00,Rainy,,0.86,Open2300\PHP-WU,2013-02-23 16:14:00,
2013-02-23 11:20:00,38.5,35.2,30.03,NNW,337,0.0,-999.0,88,0.00,Rainy,,0.86,Open2300\PHP-WU,2013-02-23 16:20:00,
2013-02-23 11:25:00,38.8,35.6,30.04,North,0,0.0,-999.0,88,0.00,Rainy,,0.86,Open2300\PHP-WU,2013-02-23 16:25:00,
2013-02-23 11:32:00,38.8,35.6,30.02,North,0,0.0,-999.0,88,0.00,Rainy,,0.86,Open2300\PHP-WU,2013-02-23 16:32:00,
2013-02-23 11:37:00,39.0,36.0,30.02,North,0,0.0,-999.0,89,0.04,Rainy,,0.90,Open2300\PHP-WU,2013-02-23 16:37:00,
2013-02-23 11:43:00,39.2,35.9,30.02,NNE,22,0.0,-999.0,88,0.04,Rainy,,0.90,Open2300\PHP-WU,2013-02-23 16:43:00,
2013-02-23 11:50:00,39.0,35.7,30.02,NNE,22,0.0,-999.0,88,0.08,Rainy,,0.94,Open2300\PHP-WU,2013-02-23 16:50:00,
2013-02-23 11:55:00,39.4,36.1,30.01,NNE,22,0.0,-999.0,88,0.08,Rainy,,0.94,Open2300\PHP-WU,2013-02-23 16:55:00,
2013-02-23 12:01:00,39.4,36.1,30.01,NNE,22,0.0,-999.0,88,0.08,Rainy,,0.94,Open2300\PHP-WU,2013-02-23 17:01:00,
2013-02-23 12:08:00,39.6,36.3,30.00,NNE,22,0.0,-999.0,88,0.10,Rainy,,0.96,Open2300\PHP-WU,2013-02-23 17:08:00,
2013-02-23 12:13:00,39.6,36.3,30.00,NNE,22,0.0,-999.0,88,0.10,Rainy,,0.96,Open2300\PHP-WU,2013-02-23 17:13:00,
2013-02-23 12:19:00,39.6,36.3,30.00,NNE,22,0.0,-999.0,88,0.10,Rainy,,0.96,Open2300\PHP-WU,2013-02-23 17:19:00,
2013-02-23 14:02:00,40.8,37.5,29.99,NW,315,0.0,-999.0,88,0.00,Rainy,,0.94,Open2300\PHP-WU,2013-02-23 19:02:00,
2013-02-23 14:07:00,41.2,37.9,29.97,NNE,22,0.0,-999.0,88,0.00,Rainy,,0.94,Open2300\PHP-WU,2013-02-23 19:07:00,
2013-02-23 14:13:00,41.2,37.9,29.99,NNE,22,0.0,-999.0,88,0.00,Rainy,,0.94,Open2300\PHP-WU,2013-02-23 19:13:00,
2013-02-23 14:19:00,41.2,37.9,29.98,NNE,22,0.0,-999.0,88,0.00,Rainy,,0.94,Open2300\PHP-WU,2013-02-23 19:19:00,
2013-02-23 14:25:00,41.2,37.9,29.97,NNE,22,0.0,-999.0,88,0.00,Rainy,,0.94,Open2300\PHP-WU,2013-02-23 19:25:00,
2013-02-23 14:31:00,41.2,37.9,29.98,NNW,337,0.0,-999.0,88,0.00,Rainy,,0.94,Open2300\PHP-WU,2013-02-23 19:31:00,
2013-02-23 14:37:00,41.2,37.9,29.98,NNW,337,0.0,-999.0,88,0.00,Rainy,,0.94,Open2300\PHP-WU,2013-02-23 19:37:00,
2013-02-23 16:33:00,42.6,39.3,29.95,NNE,22,0.0,-999.0,88,0.00,Rainy,,0.88,Open2300\PHP-WU,2013-02-23 21:33:00,
2013-02-23 16:39:00,42.4,39.1,29.94,NNW,337,0.0,-999.0,88,0.04,Rainy,,0.92,Open2300\PHP-WU,2013-02-23 21:39:00,
2013-02-23 16:45:00,42.6,39.3,29.95,West,270,0.0,-999.0,88,0.04,Rainy,,0.92,Open2300\PHP-WU,2013-02-23 21:45:00,
2013-02-23 16:51:00,42.4,39.1,29.95,WNW,292,0.0,-999.0,88,0.06,Rainy,,0.94,Open2300\PHP-WU,2013-02-23 21:51:00,
2013-02-23 16:57:00,42.4,39.1,29.95,WNW,292,0.0,-999.0,88,0.06,Rainy,,0.94,Open2300\PHP-WU,2013-02-23 21:57:00,
2013-02-23 17:03:00,42.6,39.3,29.94,WNW,292,0.0,-999.0,88,0.06,Rainy,,0.90,Open2300\PHP-WU,2013-02-23 22:03:00,
2013-02-23 17:09:00,42.4,39.1,29.94,WNW,292,0.0,-999.0,88,0.06,Rainy,,0.90,Open2300\PHP-WU,2013-02-23 22:09:00,
2013-02-23 17:15:00,42.4,39.1,29.95,WNW,292,0.0,-999.0,88,0.06,Rainy,,0.90,Open2300\PHP-WU,2013-02-23 22:15:00,
2013-02-23 17:21:00,42.6,39.3,29.95,NW,315,0.0,-999.0,88,0.06,Rainy,,0.90,Open2300\PHP-WU,2013-02-23 22:21:00,
2013-02-23 17:27:00,42.6,39.3,29.95,WNW,292,0.0,-999.0,88,0.06,Rainy,,0.90,Open2300\PHP-WU,2013-02-23 22:27:00,
2013-02-23 17:33:00,42.6,39.3,29.94,NW,315,0.0,-999.0,88,0.06,Rainy,,0.90,Open2300\PHP-WU,2013-02-23 22:33:00,
2013-02-23 17:39:00,42.6,39.3,29.93,NW,315,0.0,-999.0,88,0.02,Rainy,,0.90,Open2300\PHP-WU,2013-02-23 22:39:00,
2013-02-23 17:45:00,42.6,39.3,29.93,NW,315,0.0,-999.0,88,0.00,Rainy,,0.90,Open2300\PHP-WU,2013-02-23 22:45:00,
2013-02-23 17:51:00,42.6,39.3,29.92,NW,315,0.0,-999.0,88,0.00,Rainy,,0.90,Open2300\PHP-WU,2013-02-23 22:51:00,
2013-02-23 17:57:00,42.6,39.3,29.92,NW,315,0.0,-999.0,88,0.00,Rainy,,0.90,Open2300\PHP-WU,2013-02-23 22:57:00,
2013-02-23 18:03:00,42.6,39.3,29.92,NW,315,0.0,-999.0,88,0.00,Rainy,,0.90,Open2300\PHP-WU,2013-02-23 23:03:00,
2013-02-23 18:09:00,42.6,39.3,29.92,NW,315,0.0,-999.0,88,0.00,Rainy,,0.90,Open2300\PHP-WU,2013-02-23 23:09:00,
2013-02-23 18:15:00,42.6,39.3,29.91,NW,315,0.0,-999.0,88,0.00,Rainy,,0.90,Open2300\PHP-WU,2013-02-23 23:15:00,
2013-02-23 18:21:00,42.6,39.3,29.91,North,0,0.0,-999.0,88,0.00,Rainy,,0.90,Open2300\PHP-WU,2013-02-23 23:21:00,
2013-02-23 18:27:00,42.6,39.3,29.91,North,0,0.0,-999.0,88,0.00,Rainy,,0.90,Open2300\PHP-WU,2013-02-23 23:27:00,
2013-02-23 18:33:00,42.6,39.6,29.91,North,0,0.0,-999.0,89,0.00,Rainy,,0.90,Open2300\PHP-WU,2013-02-23 23:33:00,
2013-02-23 18:39:00,42.4,39.4,29.91,North,0,0.0,-999.0,89,0.00,Rainy,,0.90,Open2300\PHP-WU,2013-02-23 23:39:00,
2013-02-23 18:45:00,42.4,39.4,29.91,North,0,0.0,-999.0,89,0.00,Rainy,,0.90,Open2300\PHP-WU,2013-02-23 23:45:00,
2013-02-23 18:51:00,42.6,39.6,29.91,North,0,0.0,-999.0,89,0.00,Rainy,,0.90,Open2300\PHP-WU,2013-02-23 23:51:00,
2013-02-23 18:57:00,42.6,39.6,29.91,North,0,0.0,-999.0,89,0.00,Rainy,,0.90,Open2300\PHP-WU,2013-02-23 23:57:00,
2013-02-23 19:03:00,42.6,39.6,29.91,North,0,0.0,-999.0,89,0.00,Rainy,,0.90,Open2300\PHP-WU,2013-02-24 00:03:00,
2013-02-23 19:09:00,42.6,39.6,29.91,North,0,0.0,-999.0,89,0.00,Rainy,,0.90,Open2300\PHP-WU,2013-02-24 00:09:00,
2013-02-23 19:15:00,42.6,39.6,29.91,North,0,0.0,-999.0,89,0.00,Rainy,,0.90,Open2300\PHP-WU,2013-02-24 00:15:00,
2013-02-23 19:21:00,42.6,39.6,29.91,North,0,0.0,-999.0,89,0.00,Rainy,,0.90,Open2300\PHP-WU,2013-02-24 00:21:00,
2013-02-23 19:27:00,42.6,39.6,29.91,North,0,0.0,-999.0,89,0.00,Rainy,,0.90,Open2300\PHP-WU,2013-02-24 00:27:00,
2013-02-23 19:34:00,42.6,39.6,29.91,North,0,0.0,-999.0,89,0.00,Rainy,,0.90,Open2300\PHP-WU,2013-02-24 00:34:00,
2013-02-23 19:40:00,42.4,39.4,29.91,North,0,0.0,-999.0,89,0.00,Rainy,,0.90,Open2300\PHP-WU,2013-02-24 00:40:00,
2013-02-23 19:46:00,42.6,39.6,29.91,North,0,0.0,-999.0,89,0.00,Rainy,,0.90,Open2300\PHP-WU,2013-02-24 00:46:00,
2013-02-23 19:52:00,42.6,39.6,29.92,North,0,0.0,-999.0,89,0.00,Rainy,,0.90,Open2300\PHP-WU,2013-02-24 00:52:00,
2013-02-23 19:58:00,42.6,39.6,29.92,North,0,0.0,-999.0,89,0.00,Rainy,,0.90,Open2300\PHP-WU,2013-02-24 00:58:00,
2013-02-23 20:04:00,42.6,39.6,29.92,North,0,0.0,-999.0,89,0.00,Rainy,,0.88,Open2300\PHP-WU,2013-02-24 01:04:00,
2013-02-23 20:10:00,42.6,39.6,29.92,North,0,0.0,-999.0,89,0.00,Rainy,,0.88,Open2300\PHP-WU,2013-02-24 01:10:00,
2013-02-23 20:16:00,42.6,39.6,29.93,North,0,0.0,-999.0,89,0.00,Rainy,,0.88,Open2300\PHP-WU,2013-02-24 01:16:00,
2013-02-23 20:22:00,42.6,39.6,29.93,North,0,0.0,-999.0,89,0.00,Rainy,,0.88,Open2300\PHP-WU,2013-02-24 01:22:00,
2013-02-23 20:28:00,42.6,39.6,29.93,North,0,0.0,-999.0,89,0.00,Rainy,,0.88,Open2300\PHP-WU,2013-02-24 01:28:00,
2013-02-23 20:34:00,42.6,39.6,29.93,North,0,0.0,-999.0,89,0.00,Rainy,,0.88,Open2300\PHP-WU,2013-02-24 01:34:00,
2013-02-23 20:40:00,42.6,39.6,29.93,North,0,0.0,-999.0,89,0.00,Rainy,,0.88,Open2300\PHP-WU,2013-02-24 01:40:00,
2013-02-23 20:46:00,42.6,39.6,29.93,North,0,0.0,-999.0,89,0.00,Rainy,,0.88,Open2300\PHP-WU,2013-02-24 01:46:00,
2013-02-23 20:52:00,42.6,39.6,29.93,North,0,0.0,-999.0,89,0.00,Rainy,,0.88,Open2300\PHP-WU,2013-02-24 01:52:00,
2013-02-23 20:58:00,43.0,40.0,29.92,North,0,0.0,-999.0,89,0.00,Rainy,,0.88,Open2300\PHP-WU,2013-02-24 01:58:00,
2013-02-23 21:04:00,43.0,40.0,29.92,North,0,0.0,-999.0,89,0.00,Rainy,,0.88,Open2300\PHP-WU,2013-02-24 02:04:00,
2013-02-23 21:10:00,43.0,40.0,29.92,North,0,0.0,-999.0,89,0.00,Rainy,,0.88,Open2300\PHP-WU,2013-02-24 02:10:00,
2013-02-23 21:16:00,43.0,40.0,29.92,North,0,0.0,-999.0,89,0.00,Rainy,,0.88,Open2300\PHP-WU,2013-02-24 02:16:00,
2013-02-23 21:22:00,42.8,39.8,29.93,ENE,67,0.0,-999.0,89,0.00,Rainy,,0.88,Open2300\PHP-WU,2013-02-24 02:22:00,
2013-02-23 21:28:00,42.8,39.8,29.94,ENE,67,0.0,-999.0,89,0.00,Rainy,,0.88,Open2300\PHP-WU,2013-02-24 02:28:00,
2013-02-23 21:34:00,43.0,40.0,29.93,ENE,67,0.0,-999.0,89,0.00,Rainy,,0.88,Open2300\PHP-WU,2013-02-24 02:34:00,
2013-02-23 21:40:00,43.0,40.0,29.92,East,90,0.0,-999.0,89,0.00,Rainy,,0.88,Open2300\PHP-WU,2013-02-24 02:40:00,
2013-02-23 21:46:00,42.8,39.8,29.92,East,90,0.0,-999.0,89,0.00,Rainy,,0.88,Open2300\PHP-WU,2013-02-24 02:46:00,
2013-02-23 21:52:00,43.0,40.0,29.93,SE,135,0.0,-999.0,89,0.00,Rainy,,0.88,Open2300\PHP-WU,2013-02-24 02:52:00,
2013-02-23 21:58:00,43.0,40.0,29.93,SE,135,0.0,-999.0,89,0.00,Rainy,,0.88,Open2300\PHP-WU,2013-02-24 02:58:00,
2013-02-23 22:04:00,43.0,40.0,29.94,SE,135,0.0,-999.0,89,0.00,Rainy,,0.88,Open2300\PHP-WU,2013-02-24 03:04:00,
2013-02-23 22:10:00,43.0,40.0,29.92,SE,135,0.0,-999.0,89,0.00,Rainy,,0.88,Open2300\PHP-WU,2013-02-24 03:10:00,
2013-02-23 22:16:00,43.0,40.0,29.92,SE,135,0.0,-999.0,89,0.00,Rainy,,0.88,Open2300\PHP-WU,2013-02-24 03:16:00,
2013-02-23 22:22:00,43.0,40.0,29.91,SE,135,0.0,-999.0,89,0.00,Rainy,,0.88,Open2300\PHP-WU,2013-02-24 03:22:00,
2013-02-23 22:28:00,43.0,40.0,29.91,SE,135,0.0,-999.0,89,0.00,Rainy,,0.88,Open2300\PHP-WU,2013-02-24 03:28:00,
2013-02-23 22:34:00,43.0,40.0,29.91,SE,135,0.0,-999.0,89,0.00,Rainy,,0.88,Open2300\PHP-WU,2013-02-24 03:34:00,
2013-02-23 22:40:00,43.0,40.0,29.91,SE,135,0.0,-999.0,89,0.00,Rainy,,0.88,Open2300\PHP-WU,2013-02-24 03:40:00,
2013-02-23 22:46:00,43.0,40.0,29.91,SE,135,0.0,-999.0,89,0.00,Rainy,,0.88,Open2300\PHP-WU,2013-02-24 03:46:00,
2013-02-23 22:52:00,43.0,40.0,29.90,SE,135,0.0,-999.0,89,0.00,Rainy,,0.88,Open2300\PHP-WU,2013-02-24 03:52:00,
2013-02-23 22:58:00,43.0,40.0,29.90,SE,135,0.0,-999.0,89,0.00,Rainy,,0.88,Open2300\PHP-WU,2013-02-24 03:58:00,
2013-02-23 23:04:00,43.0,40.0,29.89,SSE,157,0.0,-999.0,89,0.00,Rainy,,0.86,Open2300\PHP-WU,2013-02-24 04:04:00,
2013-02-23 23:10:00,43.0,40.0,29.89,SSE,157,0.0,-999.0,89,0.00,Rainy,,0.86,Open2300\PHP-WU,2013-02-24 04:10:00,
2013-02-23 23:16:00,43.0,40.0,29.89,SSE,157,0.0,-999.0,89,0.00,Rainy,,0.86,Open2300\PHP-WU,2013-02-24 04:16:00,
2013-02-23 23:22:00,42.8,39.8,29.89,SSE,157,0.0,-999.0,89,0.00,Rainy,,0.86,Open2300\PHP-WU,2013-02-24 04:22:00,
2013-02-23 23:28:00,42.8,39.8,29.88,SW,225,0.0,-999.0,89,0.00,Rainy,,0.86,Open2300\PHP-WU,2013-02-24 04:28:00,
2013-02-23 23:34:00,42.8,39.8,29.89,SW,225,0.0,-999.0,89,0.00,Rainy,,0.86,Open2300\PHP-WU,2013-02-24 04:34:00,
2013-02-23 23:40:00,43.0,40.0,29.88,SW,225,0.0,-999.0,89,0.00,Rainy,,0.86,Open2300\PHP-WU,2013-02-24 04:40:00,
2013-02-23 23:46:00,43.0,40.0,29.90,WSW,247,0.0,-999.0,89,0.00,Rainy,,0.86,Open2300\PHP-WU,2013-02-24 04:46:00,
2013-02-23 23:52:00,43.0,40.0,29.91,WSW,247,0.0,-999.0,89,0.00,Rainy,,0.86,Open2300\PHP-WU,2013-02-24 04:52:00,
2013-02-23 23:57:00,43.0,40.0,29.92,WNW,292,0.0,-999.0,89,0.00,Rainy,,0.86,Open2300\PHP-WU,2013-02-24 04:57:00,